Wind_Speed
14 13 11 10 10 10 10 9 8 8 7 6 6 6 5 5 4 4 3 3 2 4 3 3 5 4 5 5 5 4 5 5 5 6 4 2 3 6 6 7 8 8 10 11 12 13 13 13 12 12 11 10 9 8 7 7 8 8 8 8 7 8 8 9 10 10 11 10 10 10 11 12 12 13 13 13 13 13 13 12 12 13 13 13 12
12 10 10 10 11 11 9 9 8 7 7 6 6 5 5 4 4 3 2 2 2 3 3 3 5 4 5 5 5 5 5 5 5 5 5 3 2 5 7 7 8 9 10 12 13 13 13 12 12 11 10 9 8 7 6 6 7 7 7 7 7 8 9 10 11 11 11 11 11 11 11 12 13 14 14 15 15 15 14 14 14 14 14 15 15
11 10 10 11 12 11 9 9 8 7 7 6 5 5 4 4 5 4 3 2 3 3 3 4 5 5 5 6 6 6 5 6 6 6 6 5 3 4 6 8 8 9 11 12 13 13 12 11 11 10 9 8 7 6 5 4 4 5 5 6 7 8 9 10 11 12 12 11 11 12 12 13 14 14 14 14 14 14 14 14 14 15 15 15 16
11 11 10 11 10 10 9 7 7 6 6 5 5 5 4 4 5 6 4 2 2 3 3 4 4 5 6 6 6 6 5 5 6 6 5 5 5 3 5 7 8 9 11 11 12 12 11 10 9 8 8 7 5 4 3 2 2 3 4 5 7 9 11 12 12 12 12 12 12 12 13 13 14 13 12 12 12 12 12 13 14 14 15 15 16
13 12 10 10 10 9 8 7 6 6 5 5 6 5 4 4 4 4 2 1 3 2 3 5 4 4 6 6 6 6 6 5 6 6 4 4 5 4 3 5 8 9 9 10 10 9 9 8 7 7 6 5 4 2 1 0 1 2 5 6 8 11 13 13 13 13 12 12 12 12 13 14 13 11 10 9 9 10 11 12 12 13 13 14 15
15 14 10 10 9 8 7 6 6 5 5 5 4 4 4 4 3 2 1 1 3 2 3 5 4 4 5 6 6 5 5 5 5 6 5 5 5 5 3 2 5 7 7 7 7 7 7 6 5 5 4 3 2 1 1 2 2 1 5 7 8 10 14 14 14 13 12 11 12 12 13 13 11 9 8 8 8 9 10 11 11 11 12 13 14
16 14 9 9 8 8 7 6 7 5 5 6 5 3 4 5 3 2 2 2 3 3 4 4 3 4 5 5 6 5 5 5 5 5 6 5 4 4 3 2 2 3 4 4 3 3 4 4 3 3 2 2 1 2 3 4 4 3 4 8 9 9 12 15 15 14 12 12 13 13 13 12 10 8 8 8 9 9 10 10 10 10 11 12 13
16 15 10 8 7 7 7 6 7 6 4 7 7 4 5 6 4 2 2 2 2 4 4 4 4 5 5 5 5 5 5 4 3 5 5 5 5 4 4 4 1 1 3 3 3 2 1 1 1 1 2 2 3 4 5 6 7 7 6 7 9 11 12 15 16 15 12 12 14 14 13 11 10 10 10 11 12 12 12 11 11 11 11 12 13
14 15 11 7 7 7 6 5 6 5 5 5 5 4 4 5 4 2 2 2 1 3 4 3 4 5 5 6 4 3 4 3 3 4 5 5 6 6 5 5 3 2 5 4 1 1 2 3 4 5 5 5 6 7 8 9 10 11 11 8 7 10 13 14 17 15 12 13 15 15 13 11 11 11 13 14 15 15 14 13 13 13 13 13 13
13 15 13 7 6 7 5 6 5 4 6 4 3 5 3 3 2 1 2 2 2 2 3 2 3 4 4 5 3 3 3 3 4 4 5 5 5 6 7 5 4 3 4 6 3 4 3 2 4 6 6 7 9 10 10 12 12 12 13 13 10 10 14 15 17 16 12 13 16 16 14 11 12 13 14 16 17 17 17 16 15 15 15 15 15
13 13 12 6 4 5 4 6 4 5 6 4 4 5 4 4 2 2 2 1 1 1 2 2 1 3 3 4 3 3 3 2 3 4 4 5 5 7 8 7 6 7 4 7 7 6 6 5 3 5 7 6 8 12 12 12 14 14 14 14 14 14 17 18 19 16 12 13 16 17 15 12 12 14 16 17 18 18 19 18 17 16 16 16 16
12 12 11 7 5 4 4 5 4 5 6 4 3 4 6 4 2 4 3 1 1 1 2 1 1 2 2 2 3 3 4 3 4 5 4 5 6 6 8 7 6 7 5 6 7 6 8 7 4 6 8 7 8 11 11 12 14 14 14 14 14 15 16 17 18 16 13 14 16 17 14 12 13 14 16 17 17 18 18 18 18 16 16 16 17
10 10 10 9 7 4 5 6 4 4 6 5 5 7 7 4 2 4 3 0 1 1 2 1 2 4 2 3 4 3 4 4 4 6 5 5 7 6 6 7 8 9 7 7 8 7 7 7 7 7 8 9 11 12 11 12 13 13 13 13 13 13 13 14 16 16 15 15 16 14 12 12 12 14 16 17 17 17 18 18 17 16 15 16 17
10 9 8 7 6 4 4 5 4 4 6 6 6 8 7 4 1 1 1 1 1 0 1 1 2 4 3 3 5 5 4 4 5 6 6 6 7 7 7 7 8 9 8 9 8 7 6 6 6 7 9 11 12 14 13 12 13 14 14 13 12 11 13 14 16 16 16 15 14 12 11 11 12 14 16 16 17 18 19 19 18 17 15 16 17
9 8 7 6 6 5 3 4 4 4 5 5 5 6 6 4 1 2 3 3 2 1 1 0 2 1 3 4 5 5 4 5 6 5 5 5 5 7 7 7 8 8 7 9 8 7 7 7 6 7 10 13 14 15 14 13 14 13 13 13 11 11 13 15 16 15 14 14 13 12 11 12 13 15 16 17 18 19 19 19 18 17 16 16 16
8 7 5 6 7 5 3 3 4 4 4 4 4 4 4 3 2 2 2 1 2 1 1 0 2 0 2 3 4 5 4 4 7 6 6 6 5 6 6 6 8 8 7 8 8 6 6 7 8 8 11 16 16 16 14 13 13 12 12 12 10 11 14 16 15 13 13 13 12 11 11 12 14 16 17 18 18 18 19 20 19 17 17 16 16
7 7 5 6 7 6 5 4 3 4 3 3 3 3 4 3 3 3 0 1 2 1 1 1 0 0 1 2 3 4 3 3 5 4 5 6 4 4 4 5 7 7 7 8 7 6 6 5 6 9 11 14 14 14 14 14 13 13 13 12 10 12 15 15 13 12 12 13 12 11 12 13 15 17 18 17 17 18 20 22 21 18 16 16 16
7 7 6 7 7 6 7 4 2 3 4 4 4 4 4 3 3 2 0 2 3 0 2 1 0 0 1 1 3 3 2 4 6 2 4 8 5 5 5 5 7 7 6 8 8 6 5 4 5 8 10 11 13 14 15 15 14 14 13 11 11 13 15 14 12 12 13 13 11 11 12 13 15 17 17 17 18 20 22 23 23 20 16 14 15
7 8 8 8 7 7 7 5 3 3 4 4 4 3 4 4 4 4 3 5 4 0 2 1 1 2 1 1 2 4 4 5 6 5 4 7 6 7 8 7 8 8 6 7 7 5 5 5 5 7 10 11 13 14 16 15 13 12 11 10 12 14 15 13 12 12 12 12 11 11 12 13 15 16 16 18 20 22 23 25 24 21 16 13 13
8 8 9 8 7 7 7 6 5 4 4 3 3 4 4 4 7 7 6 5 3 2 3 1 2 3 1 2 3 4 6 6 6 7 5 6 6 6 7 8 10 9 7 7 8 5 6 6 3 6 12 12 11 13 12 10 10 10 10 12 14 15 14 12 11 10 10 11 11 12 12 13 15 16 18 20 22 23 24 26 25 21 17 12 11
10 9 9 8 8 8 7 6 6 5 4 3 4 5 6 7 6 5 5 4 4 5 4 3 4 4 2 3 4 4 5 5 6 7 4 3 5 5 6 8 9 9 8 10 10 7 7 8 5 6 9 9 10 11 7 6 9 9 11 15 15 13 12 10 9 9 10 11 13 13 14 14 15 17 19 21 22 23 24 26 24 21 18 14 11
11 10 10 9 8 8 7 6 5 5 5 5 5 5 6 6 4 4 7 7 6 5 5 4 5 5 4 4 4 5 6 5 7 6 4 4 5 5 8 10 10 9 9 11 11 9 7 8 8 8 7 6 7 7 5 7 7 6 10 14 13 10 10 8 7 9 11 12 14 14 15 15 17 18 21 22 22 22 24 25 23 20 18 16 13
10 10 10 10 9 8 7 6 6 6 6 5 4 4 4 3 3 6 8 7 7 6 6 6 6 7 7 7 7 7 7 7 7 7 6 6 5 5 7 10 11 12 11 11 10 9 6 6 9 9 7 6 5 5 8 8 7 7 11 14 11 8 8 7 7 10 11 13 14 15 16 17 18 20 21 22 21 22 24 25 22 18 18 17 15
10 10 10 10 10 9 8 7 7 7 6 6 6 6 5 4 5 6 6 7 7 7 7 7 7 7 8 8 8 8 8 8 8 8 7 6 5 6 8 9 11 12 11 11 9 7 7 6 8 8 5 6 5 6 9 9 7 8 12 13 9 7 7 7 8 10 12 14 15 16 17 19 20 21 21 21 21 22 24 24 22 17 17 17 16
10 10 10 10 10 10 9 9 8 8 8 8 9 9 8 7 6 6 6 7 7 7 8 7 7 8 8 8 8 9 9 9 9 8 8 8 8 9 8 8 10 10 10 10 8 8 10 8 7 6 5 6 6 6 8 9 9 9 11 11 8 6 8 8 9 11 13 14 16 17 19 20 20 20 20 20 21 22 23 24 22 17 16 15 15
11 11 10 10 10 10 10 10 10 9 9 9 9 9 9 9 8 8 7 7 8 8 8 7 8 9 8 9 9 9 9 9 9 9 9 10 10 10 10 9 11 11 10 9 8 8 10 8 6 6 6 6 7 7 7 8 9 10 9 7 7 7 8 9 10 12 14 15 17 18 18 19 19 19 19 21 21 23 23 23 22 18 15 14 13
11 11 11 11 10 10 11 11 10 10 10 10 9 9 9 9 10 10 8 8 9 9 8 8 8 9 9 9 10 10 10 10 10 10 10 10 10 9 10 11 12 12 11 10 9 9 8 7 7 7 6 6 7 8 9 6 5 9 7 4 8 10 8 9 12 13 15 16 17 16 17 17 18 19 20 21 22 23 23 23 21 18 15 13 12
11 11 12 12 11 11 11 11 11 11 11 11 10 10 10 10 10 11 10 8 9 9 9 8 9 9 9 10 10 10 10 10 10 11 10 11 11 10 10 11 12 12 12 11 9 8 8 8 9 8 8 10 10 8 9 6 4 7 6 3 8 11 11 13 13 13 15 15 14 15 17 18 19 19 20 21 22 23 22 22 20 17 15 13 12
12 12 12 12 12 12 12 11 11 11 11 11 11 11 11 10 10 11 10 9 9 11 11 9 9 10 9 9 9 9 10 10 10 11 11 12 11 11 11 11 10 11 12 12 11 10 9 8 9 9 11 14 12 8 7 6 5 7 6 4 7 11 13 14 13 13 15 15 14 16 18 19 19 19 20 21 22 22 22 21 19 16 15 14 12
13 12 12 12 13 14 13 13 13 12 12 12 11 12 11 11 11 12 12 11 12 13 13 11 10 11 10 10 10 10 10 10 10 11 11 12 11 11 12 11 10 10 11 13 13 12 11 10 9 10 12 13 10 8 7 6 7 8 8 6 6 11 14 13 12 13 15 15 16 18 19 19 19 19 20 21 21 21 20 19 17 15 15 14 13
15 15 14 13 13 14 14 14 14 14 13 13 12 13 12 11 11 12 12 13 13 13 13 12 11 11 11 11 11 11 11 11 11 11 11 12 12 11 12 11 10 10 11 14 16 15 12 12 11 10 11 12 9 7 6 5 8 11 10 7 7 11 13 12 12 14 15 16 17 19 20 20 19 19 20 20 20 20 19 17 16 15 15 15 14
16 16 16 15 14 14 14 13 13 14 14 13 13 14 14 13 12 12 12 13 14 14 13 12 11 11 11 11 11 11 11 11 11 12 12 12 12 12 12 11 11 12 12 13 18 18 14 14 15 12 9 10 12 10 6 4 8 11 11 9 9 10 11 11 13 15 15 16 17 19 21 20 18 19 19 19 19 18 18 16 15 15 15 16 15
17 17 17 17 16 16 15 14 14 14 15 15 14 14 15 15 14 13 13 14 16 15 13 12 12 12 13 13 13 13 13 12 12 12 12 13 13 12 12 12 12 13 12 14 18 20 17 16 15 12 7 8 11 11 8 5 7 9 10 9 9 9 9 9 13 16 15 15 17 20 22 20 17 17 17 18 18 17 16 16 15 15 15 15 15
17 17 17 17 17 17 17 16 15 15 16 17 16 15 15 15 14 14 14 15 17 16 15 15 15 14 14 15 15 15 14 13 14 13 13 13 13 13 13 12 13 13 13 14 15 17 18 16 14 11 9 10 10 9 9 8 8 9 9 8 8 9 8 8 12 16 15 14 17 20 23 20 17 16 17 18 18 16 16 15 15 15 14 14 14
17 17 18 17 17 18 18 18 18 17 16 17 17 16 16 16 15 14 14 14 15 15 15 15 16 15 15 15 15 14 14 14 14 14 13 13 13 13 13 13 13 13 13 13 13 14 17 16 13 11 11 13 12 10 10 10 10 10 10 9 9 9 8 8 10 13 13 14 16 20 22 20 17 16 16 18 17 15 16 16 16 15 14 13 13
17 17 17 18 18 18 19 19 19 19 18 18 17 16 16 17 17 16 16 15 16 16 15 15 15 15 15 15 15 15 14 14 15 14 14 13 13 13 13 14 14 13 13 15 14 14 16 16 15 13 12 13 12 11 11 12 11 11 12 12 10 9 9 9 8 10 13 15 16 18 19 19 18 16 16 16 15 14 16 17 16 15 14 12 12
18 17 17 18 18 19 20 20 20 20 20 19 18 17 17 16 17 16 16 17 17 17 17 17 17 17 17 17 16 15 15 15 15 15 14 14 14 13 13 13 13 13 12 13 13 12 14 15 16 16 15 14 14 12 12 13 12 12 13 12 11 10 10 9 7 9 13 14 14 15 16 16 17 16 16 14 13 13 15 16 16 15 14 12 12
18 18 18 18 18 19 20 20 20 20 20 20 19 19 18 17 17 16 16 16 16 16 16 17 17 17 18 18 17 16 16 17 16 15 15 15 14 13 13 12 13 15 13 11 13 15 15 16 16 17 16 15 15 13 12 13 13 13 13 12 12 11 11 11 9 8 9 10 12 14 15 16 16 15 14 13 12 11 13 15 15 15 13 12 12
18 18 19 18 19 20 20 21 21 21 20 20 20 20 19 18 18 17 17 17 16 16 16 16 17 17 18 18 18 17 17 17 17 16 16 15 15 15 15 13 14 16 15 15 16 18 17 15 15 16 16 15 14 13 13 13 14 15 15 14 13 12 11 11 10 9 8 8 9 12 13 13 13 14 14 13 10 10 12 14 14 14 13 12 12
18 17 18 19 19 21 21 20 22 22 21 20 20 21 20 19 19 18 18 17 17 17 18 17 17 17 18 18 18 18 18 17 18 17 17 16 15 16 16 16 16 16 16 17 18 17 16 16 16 17 17 16 15 14 14 15 17 18 16 14 15 15 10 9 11 11 9 7 7 10 12 10 10 12 14 13 10 10 12 13 13 13 12 12 13
22 20 19 19 19 21 19 18 19 21 21 21 20 20 20 20 19 19 18 17 17 17 18 18 17 17 18 17 17 19 19 19 19 18 18 18 17 17 16 17 19 19 18 19 18 17 17 18 18 17 16 15 15 15 15 15 17 18 16 16 20 18 10 9 12 10 7 6 6 9 10 9 10 12 11 11 12 12 12 13 13 12 12 12 13
24 23 22 20 20 20 20 19 19 20 21 21 21 22 22 20 18 17 18 19 20 18 17 18 19 19 18 17 18 19 19 19 20 20 21 22 22 22 20 19 22 21 20 21 21 20 20 19 18 17 16 15 14 14 16 15 15 17 17 17 20 18 12 11 12 8 7 8 9 9 8 6 11 12 7 6 11 13 13 13 13 13 12 12 13
23 23 22 22 21 20 20 20 20 20 22 22 21 23 23 22 20 17 16 19 21 21 20 21 21 21 19 18 18 20 20 20 21 21 23 25 23 23 23 22 23 23 21 22 23 22 21 21 19 18 18 18 15 15 16 15 15 16 13 11 13 15 14 13 12 11 11 11 11 11 9 6 9 10 8 9 13 14 14 13 13 12 12 12 13
24 23 21 21 22 22 22 21 20 19 21 23 24 23 23 23 22 20 18 17 17 19 21 22 21 20 19 19 19 19 20 20 21 21 22 22 22 21 20 20 21 22 22 23 24 24 24 23 21 20 19 18 17 17 16 14 15 15 13 11 12 13 13 12 12 12 13 13 11 9 8 7 8 8 11 14 13 12 13 13 12 11 12 12 13
23 24 23 22 23 24 24 24 22 19 19 21 23 24 23 22 23 22 21 18 18 19 18 18 20 20 20 21 22 22 21 20 21 22 20 19 19 19 19 21 23 24 25 26 26 26 26 24 23 23 21 19 18 18 17 15 15 15 15 14 13 11 11 12 13 13 12 12 9 6 6 8 8 8 11 14 13 13 12 11 12 12 12 13 13
22 23 24 24 24 25 26 27 25 23 20 18 19 20 21 21 21 21 21 20 20 18 15 15 19 22 23 24 24 24 23 21 21 22 22 21 21 21 22 23 26 27 27 27 27 27 27 26 26 25 23 21 20 20 18 17 16 16 16 14 13 12 12 13 14 13 12 10 7 5 6 7 8 9 11 12 13 13 12 12 14 13 11 12 14
23 25 25 24 23 24 25 25 24 24 24 21 18 18 18 18 18 20 21 22 21 18 16 18 20 21 23 25 25 25 24 22 21 22 24 25 25 26 26 23 24 26 26 25 25 24 24 24 24 25 24 22 21 21 19 17 17 16 15 13 13 15 14 14 13 11 10 10 7 4 5 6 6 8 10 12 14 14 13 14 16 12 11 14 16
25 26 26 24 24 24 25 25 23 22 24 24 21 19 18 17 17 20 21 21 22 22 21 21 22 21 22 23 24 25 25 23 23 23 24 25 26 27 26 24 24 27 27 26 24 21 21 21 21 23 23 21 21 20 17 16 16 16 16 15 15 16 14 11 10 8 6 7 8 6 6 4 4 5 7 9 14 15 14 15 16 15 17 21 20
26 27 26 25 24 24 25 25 24 22 22 23 22 20 20 19 19 19 19 18 21 24 22 21 23 24 23 23 23 24 24 24 26 25 25 25 26 26 26 25 26 28 29 29 26 23 23 23 23 23 23 22 22 20 18 17 17 17 17 17 16 15 12 11 9 6 6 9 9 9 6 3 3 5 5 5 9 12 13 15 16 17 22 24 20
25 27 26 25 25 25 25 23 23 23 23 23 22 21 21 21 20 20 20 19 21 23 22 21 24 25 25 23 23 24 24 25 25 25 24 25 26 28 28 28 29 32 32 30 28 26 26 24 23 23 23 24 25 23 21 20 20 19 19 19 17 15 13 12 9 7 8 11 11 8 4 2 4 5 5 6 7 6 8 13 17 20 21 21 18
27 29 26 24 23 23 23 20 19 21 22 22 21 20 19 20 20 20 19 19 19 20 19 19 21 22 22 22 22 22 23 24 23 22 22 24 26 28 29 28 30 34 33 29 27 27 26 26 25 24 25 26 25 24 23 23 22 21 20 19 16 15 14 12 9 7 7 8 8 5 2 2 4 4 4 6 7 5 4 8 15 18 15 13 16
Wind_Direction
146 141 137 141 140 136 135 137 138 136 137 143 149 154 153 148 144 139 130 118 135 142 134 148 136 116 125 126 119 119 123 133 133 130 146 177 133 130 133 130 131 136 136 134 130 128 126 124 123 120 116 110 103 97 88 76 68 61 52 44 33 23 15 5 1 357 356 356 357 357 358 356 355 353 350 347 343 338 333 328 323 320 317 314 312
139 139 143 147 137 132 138 138 135 134 140 150 152 152 147 147 141 133 139 121 129 148 128 133 138 121 123 128 123 120 118 123 123 127 146 175 150 132 136 134 136 140 136 131 128 127 128 128 126 123 120 115 110 103 93 77 65 55 41 28 14 6 0 356 355 357 353 349 350 350 351 351 349 347 343 341 338 334 330 325 321 317 314 312 310
145 149 148 141 132 133 136 134 135 140 146 149 154 157 151 155 155 143 137 120 120 145 133 126 132 125 120 123 124 121 122 130 123 123 143 166 177 139 133 136 139 138 134 129 127 129 130 130 129 127 124 122 119 108 94 79 62 42 21 5 356 348 345 347 349 354 352 347 346 345 346 345 341 340 338 337 336 334 331 328 325 320 316 313 309
151 145 140 135 134 134 131 135 140 140 144 153 162 158 145 148 148 128 112 114 125 137 141 131 129 131 125 120 123 121 123 133 129 130 149 163 162 139 124 134 138 134 130 129 131 133 133 132 130 131 134 132 128 118 104 84 49 19 345 336 345 342 339 344 343 345 348 344 342 340 338 337 335 336 339 343 343 342 341 338 334 327 322 318 312
149 139 137 137 136 134 131 140 145 145 154 159 155 143 133 129 121 103 85 115 140 143 145 131 120 125 127 121 122 120 118 120 123 129 138 138 141 147 137 134 136 133 130 132 133 134 134 133 134 134 141 142 140 144 143 199 16 356 323 328 348 344 340 343 341 340 343 340 336 334 332 330 332 336 345 354 355 355 353 349 345 339 332 327 320
149 136 135 139 135 135 137 148 154 154 160 155 144 137 136 131 129 125 89 102 143 136 123 130 119 111 117 120 124 126 125 121 115 124 133 134 136 143 151 130 128 127 122 125 130 136 138 134 135 137 144 151 162 205 258 293 298 307 317 330 344 343 341 344 347 344 341 338 335 331 328 328 332 338 347 356 356 354 353 352 352 351 349 345 336
148 133 134 142 137 139 142 162 164 151 162 160 148 152 151 138 133 125 95 95 137 134 117 123 122 118 118 113 116 117 117 118 116 124 129 132 134 130 131 104 93 106 86 62 62 120 142 141 142 143 150 171 227 275 291 301 300 283 302 328 334 339 342 346 351 350 344 340 336 331 328 329 333 337 339 338 338 338 337 342 347 352 354 354 351
150 134 133 144 143 144 149 168 157 146 171 157 136 155 170 145 120 87 98 87 124 147 130 119 123 125 130 123 118 115 118 125 125 132 127 129 144 133 133 142 155 182 103 55 10 15 357 234 209 219 233 260 281 295 304 306 306 299 295 313 327 338 343 344 349 351 348 342 338 335 330 327 330 332 332 328 327 326 324 325 331 338 343 346 349
151 136 130 146 154 144 151 160 143 149 171 154 132 154 160 119 98 96 99 41 53 148 142 146 144 131 136 132 121 122 131 136 121 133 139 141 155 150 153 166 164 137 118 110 45 351 338 314 295 283 278 286 293 296 302 305 307 309 307 303 313 332 335 339 350 352 345 340 341 339 330 320 322 325 327 329 326 322 319 316 316 322 329 334 338
154 141 130 148 160 135 151 158 146 162 159 153 154 155 146 100 92 139 95 36 43 117 145 164 149 133 137 137 137 149 141 143 138 144 157 156 167 171 171 178 201 222 136 142 226 266 251 256 277 282 283 292 305 307 307 309 311 314 317 316 313 316 324 334 349 351 343 339 342 339 329 314 313 319 326 332 329 325 322 318 313 313 320 325 326
158 146 130 142 159 134 161 158 150 166 154 161 168 163 168 138 133 142 78 33 75 84 139 136 137 135 131 138 156 172 152 152 167 166 175 175 178 187 184 179 212 243 190 164 207 250 254 246 240 273 289 298 310 309 311 315 314 314 318 320 317 315 323 333 342 348 344 334 334 334 327 312 309 319 331 336 335 333 330 325 320 315 316 320 319
162 153 139 142 152 158 173 149 147 166 149 150 163 182 181 147 136 140 93 339 152 118 157 151 231 154 134 173 173 189 181 184 206 196 195 189 186 197 200 193 198 213 207 195 206 233 258 270 284 300 308 314 314 310 315 322 319 317 317 318 315 312 317 324 331 338 332 323 328 333 331 321 318 327 336 338 337 338 336 334 329 320 316 316 316
164 159 153 151 151 170 174 149 150 166 155 162 175 183 177 147 136 137 106 277 159 133 166 163 200 169 177 211 185 202 201 200 219 213 214 202 196 206 212 213 206 201 210 217 216 235 252 269 294 300 298 296 302 314 328 332 328 329 330 328 323 318 318 320 324 327 323 323 331 336 337 335 333 337 339 338 338 339 338 337 335 327 317 313 314
167 167 168 160 152 170 174 155 158 171 170 176 183 181 171 151 161 163 141 187 162 71 145 152 228 191 192 217 197 194 199 222 231 220 222 215 207 211 215 226 220 210 215 214 227 263 245 235 262 263 267 278 290 310 327 330 325 332 336 336 338 336 332 328 326 325 323 327 333 338 341 342 342 342 341 339 338 338 336 335 335 330 322 315 315
172 174 174 168 165 171 173 171 172 170 168 169 176 183 174 157 218 230 178 174 173 118 122 29 320 199 191 215 207 192 201 242 237 225 227 225 227 224 219 233 228 216 220 219 235 262 235 235 248 240 272 294 300 311 324 324 319 325 328 331 339 342 338 333 327 324 324 328 334 338 340 343 344 343 341 339 338 339 341 341 338 332 326 320 317
178 171 174 186 179 165 164 196 189 166 164 167 165 173 183 187 212 193 172 179 165 147 142 15 352 18 200 227 218 210 219 236 225 219 228 229 236 239 232 248 240 217 227 242 242 238 231 254 262 257 287 305 310 319 324 317 314 319 320 324 333 337 338 335 329 326 327 331 334 334 339 344 343 340 340 340 341 344 347 346 343 337 329 323 318
180 167 182 200 185 174 181 194 194 171 159 165 167 177 193 200 192 174 204 351 107 91 195 152 342 93 135 249 239 235 252 277 246 217 241 257 267 274 266 284 272 234 232 260 258 247 239 248 272 282 294 303 311 322 320 311 312 318 319 322 328 336 340 338 335 333 334 335 333 331 337 341 339 339 341 342 343 345 346 346 345 342 336 328 322
179 172 190 205 191 190 191 180 194 187 170 175 183 188 186 183 184 164 201 201 143 18 265 155 105 165 125 221 233 261 298 299 283 280 278 276 297 298 266 282 295 279 271 275 272 264 245 249 296 292 284 297 306 310 311 308 310 318 320 321 328 338 341 340 340 338 338 340 335 332 335 337 338 340 342 344 345 345 345 347 348 345 341 336 329
183 184 197 205 196 199 199 185 186 194 188 184 176 178 179 185 201 187 194 206 174 225 298 50 23 271 243 244 250 274 291 286 285 308 286 261 284 293 275 283 291 295 315 301 284 274 252 268 294 275 276 292 299 307 315 309 307 319 323 324 332 337 339 340 339 339 343 347 343 337 336 337 340 342 344 346 346 345 346 348 350 348 345 341 334
188 200 207 206 201 203 206 198 191 194 194 187 182 183 183 201 215 208 213 230 214 238 271 324 321 298 277 280 281 291 298 288 288 308 295 268 290 290 276 283 280 288 315 309 291 282 272 275 247 260 286 290 291 312 324 309 313 330 329 329 334 332 333 336 338 344 350 353 351 348 344 341 340 339 340 342 342 345 348 350 351 351 349 346 335
195 205 210 209 210 208 209 208 202 198 187 185 201 195 198 216 223 218 226 242 245 250 254 258 292 314 344 304 284 291 295 288 289 300 303 301 306 290 280 284 275 282 291 280 284 292 282 277 257 270 294 289 292 313 314 294 318 335 326 326 329 327 330 336 341 347 350 351 351 349 346 341 337 335 335 337 339 344 350 351 351 352 352 352 342
206 210 210 209 214 211 212 212 205 205 200 197 205 207 219 228 224 226 233 234 236 250 261 265 277 291 303 295 280 277 281 287 287 287 307 320 304 284 292 301 292 289 290 281 290 301 283 277 290 299 301 292 297 312 305 291 305 317 319 323 327 328 335 343 345 345 344 346 346 345 345 342 338 336 335 335 339 345 351 352 352 351 351 355 353
211 217 217 213 215 212 209 210 208 211 210 204 205 218 232 238 238 242 248 248 243 245 250 261 275 277 279 280 275 271 271 283 285 280 292 300 294 281 289 304 294 283 288 289 291 301 290 277 293 299 311 328 323 302 305 312 312 312 319 324 329 335 343 348 343 341 340 340 342 342 343 342 340 338 337 337 340 346 350 352 353 352 351 357 360
206 215 218 216 219 219 211 211 218 217 212 209 205 205 204 209 232 245 258 257 251 253 251 253 267 273 275 273 275 278 277 285 289 286 288 288 293 289 281 289 285 276 282 286 283 301 309 292 289 298 324 343 333 300 309 329 333 320 315 318 329 341 342 342 336 335 337 336 339 340 338 338 337 337 338 339 342 346 348 350 354 352 352 360 4
207 212 213 213 220 225 218 213 220 220 217 216 213 209 202 203 223 233 246 256 254 256 256 254 260 269 276 275 276 282 281 287 292 289 289 286 284 283 278 279 281 281 288 291 291 300 301 293 289 294 291 303 317 316 319 329 331 324 314 316 336 349 337 335 333 332 335 336 336 336 335 335 337 338 341 342 344 345 345 347 352 352 353 0 6
212 215 213 211 217 227 229 223 222 224 224 224 224 225 219 216 227 230 235 251 252 249 255 263 266 267 272 274 277 281 282 287 292 291 290 289 288 291 298 298 292 294 296 295 298 298 301 301 296 294 290 301 317 317 318 324 323 321 316 315 329 337 331 330 333 332 333 334 333 335 338 340 344 346 345 344 343 343 343 345 349 351 352 358 4
215 216 216 213 212 222 233 233 229 229 229 229 228 232 234 229 235 240 239 247 255 257 257 259 263 267 270 274 278 282 284 284 287 290 291 294 295 294 300 301 299 301 301 298 295 295 303 298 287 293 296 305 315 316 320 320 300 311 324 318 311 321 335 335 331 332 331 330 332 340 347 349 350 350 347 344 341 341 342 343 347 350 350 354 358
214 215 218 217 213 216 227 234 238 237 233 234 231 230 236 237 240 247 245 245 255 261 260 258 262 267 268 272 277 279 281 282 284 285 286 291 293 292 295 299 300 300 299 301 298 298 304 295 291 299 293 297 307 312 315 307 285 317 334 322 304 312 330 335 330 333 334 334 338 347 351 351 350 347 345 343 340 340 341 342 347 350 351 353 353
212 214 219 222 220 219 220 225 238 243 237 236 237 234 238 241 243 251 252 244 244 251 255 257 260 264 266 269 272 277 279 281 282 283 285 288 288 288 288 287 288 291 294 299 300 301 307 305 308 310 304 308 311 302 303 296 289 312 315 310 305 301 312 325 329 336 342 342 342 346 347 346 346 345 343 342 340 340 341 343 349 352 354 356 354
212 214 217 223 228 230 226 220 225 235 235 234 236 238 241 241 243 252 255 248 243 248 255 257 258 261 264 263 265 270 275 279 281 282 284 286 285 285 285 283 282 284 289 294 296 298 305 309 312 309 310 318 312 296 310 309 294 308 315 309 294 288 301 321 331 335 341 342 342 342 342 341 341 342 341 340 340 341 343 346 349 353 356 357 356
215 216 215 217 227 236 236 228 224 229 232 230 231 236 241 239 239 247 255 259 257 255 257 259 260 261 262 263 264 266 270 275 279 281 281 281 281 281 282 285 284 281 282 286 288 294 301 301 298 294 299 307 302 292 307 304 294 307 315 305 285 292 311 326 331 331 333 334 337 337 336 336 337 339 340 340 341 343 346 348 348 350 353 354 355
217 219 219 216 219 228 234 231 226 228 231 230 228 235 242 239 235 236 243 258 265 264 258 254 254 258 260 261 262 264 267 270 273 277 279 278 278 277 277 280 279 278 280 284 288 294 298 294 291 291 291 293 296 294 284 277 293 305 315 319 310 313 323 323 319 324 327 327 330 331 332 333 335 339 341 342 343 346 349 350 348 349 351 352 353
219 220 222 220 219 222 226 227 227 227 228 228 226 230 237 240 239 235 232 240 253 260 260 255 253 253 256 258 260 263 266 268 270 272 274 275 275 273 272 274 274 272 274 277 282 287 293 295 294 297 295 285 293 298 288 282 289 291 303 311 306 306 312 310 308 314 321 323 322 325 328 330 335 339 341 345 347 349 354 356 353 351 352 352 354
221 221 223 223 222 223 224 226 227 227 229 231 230 227 231 238 241 239 236 238 248 255 258 260 260 257 255 258 262 265 268 268 268 269 269 271 272 271 268 269 270 272 275 279 281 282 287 296 298 295 288 282 284 286 283 283 286 286 292 296 295 298 300 307 310 310 316 324 323 323 325 329 337 341 344 349 350 354 1 3 1 358 356 357 357
222 222 222 223 224 224 224 225 226 226 227 231 233 229 229 235 237 237 238 239 246 254 257 260 263 260 258 259 262 264 264 264 264 265 266 267 267 268 267 266 267 270 274 280 284 282 285 292 294 290 287 287 285 284 285 288 289 291 294 292 294 297 296 307 312 307 314 326 322 319 322 329 338 343 346 350 352 358 5 7 8 6 3 3 2
222 222 223 223 225 225 225 225 226 227 227 229 233 232 232 237 239 240 240 239 240 248 254 255 255 255 256 256 258 258 257 258 259 259 260 263 264 266 267 265 265 265 266 270 273 276 284 292 295 293 291 289 289 291 292 292 291 292 294 292 292 292 290 300 314 312 315 319 314 314 321 330 337 341 345 351 354 359 4 7 11 12 8 8 9
222 223 224 223 224 226 226 226 226 227 229 229 231 233 235 238 241 242 243 244 244 247 250 250 249 251 252 251 252 255 256 256 257 258 259 260 261 263 263 263 263 261 265 271 272 270 279 290 294 294 290 286 286 288 287 289 293 297 297 295 294 293 287 288 307 316 313 315 314 315 321 327 333 337 342 350 356 358 2 6 10 11 10 10 13
224 224 225 226 226 226 227 228 229 229 230 230 232 234 235 237 240 242 242 245 248 250 252 252 252 253 255 254 252 251 252 253 254 256 257 257 258 259 260 261 261 259 258 264 267 265 267 274 280 284 288 290 292 294 293 291 291 296 300 295 288 286 283 287 303 313 311 315 316 315 320 325 330 335 338 344 351 355 0 5 7 8 8 10 15
227 227 228 229 229 228 228 230 230 229 229 231 233 234 236 236 237 240 242 243 247 251 254 256 257 257 257 259 258 255 254 254 254 254 255 256 257 258 257 256 258 260 261 261 264 267 271 273 274 278 286 291 291 291 293 293 292 296 299 291 280 278 280 288 304 311 310 317 319 314 316 319 325 332 333 334 343 352 356 1 4 3 5 10 14
225 228 232 234 234 236 238 236 232 229 228 230 233 234 236 237 237 238 241 243 246 248 249 253 256 259 260 259 260 261 257 252 253 257 258 256 256 257 257 255 255 260 264 265 266 270 274 277 278 278 281 285 286 282 282 287 293 295 292 282 279 283 282 287 302 307 308 326 334 318 315 320 325 329 327 322 333 349 351 353 357 355 358 7 11
221 221 226 232 237 242 243 240 238 236 232 230 232 233 234 235 237 239 240 241 245 248 251 254 255 256 260 261 263 266 265 259 256 258 258 255 253 256 260 263 263 263 262 264 268 272 273 275 277 278 280 286 289 286 283 286 290 292 290 283 285 290 288 288 297 295 292 317 328 315 321 330 322 320 325 323 329 342 347 346 346 348 354 1 5
227 227 229 230 233 239 241 240 239 240 237 234 234 236 236 235 234 237 239 239 241 242 244 250 251 252 256 261 263 265 266 264 262 261 261 261 261 263 267 269 268 266 265 264 266 270 273 275 277 277 278 280 283 287 292 295 294 294 289 282 286 294 297 294 295 290 292 312 319 316 323 317 302 309 320 310 311 324 335 337 336 344 355 359 358
236 237 239 236 232 233 239 242 241 242 242 239 236 237 239 239 236 235 239 243 245 244 241 245 250 253 256 259 263 267 268 265 263 263 265 268 270 272 271 269 268 270 270 269 268 271 274 276 278 277 276 276 276 280 289 296 298 298 294 281 279 289 295 298 301 302 306 315 318 318 320 300 285 299 303 294 302 314 324 329 332 343 355 357 355
238 240 240 238 233 230 233 237 238 245 249 242 236 234 235 238 238 240 244 249 252 251 249 251 253 255 260 262 263 267 271 271 271 272 271 271 273 274 273 273 275 275 273 271 270 272 273 273 275 275 276 278 277 277 285 294 293 293 295 290 283 284 290 298 303 304 308 316 318 319 320 304 287 297 305 304 310 316 319 324 330 339 351 355 353
235 237 238 238 236 234 235 236 236 247 257 252 245 242 241 243 243 243 246 249 252 252 253 258 258 254 257 260 259 259 263 267 272 277 281 279 278 280 281 280 279 277 274 272 269 268 269 270 271 271 271 273 273 276 282 286 284 286 290 292 291 289 289 293 298 300 304 313 319 317 314 308 301 305 307 307 316 321 321 328 331 332 346 353 350
233 235 238 240 241 241 240 240 241 246 254 259 257 252 251 252 252 250 248 247 249 252 254 258 259 256 256 260 262 263 265 265 268 276 284 287 286 285 282 281 279 278 276 273 270 267 265 265 266 268 270 271 272 275 277 276 276 280 282 286 288 285 286 293 295 296 299 303 302 299 315 321 316 316 312 307 315 319 320 330 329 324 340 353 349
240 239 241 243 244 243 240 239 241 244 247 254 261 262 258 258 258 256 253 250 250 251 251 257 263 265 265 267 267 267 269 270 271 275 281 285 284 281 280 279 277 277 276 273 270 266 261 260 264 268 270 270 270 272 272 271 274 275 276 280 283 282 289 294 289 291 301 300 288 290 324 331 320 320 318 309 312 317 323 331 328 322 337 344 338
249 247 245 242 240 239 238 240 243 244 245 247 253 261 265 263 260 257 256 257 259 256 253 259 267 270 271 274 273 271 272 273 273 274 275 278 279 279 278 274 273 277 280 277 275 273 268 266 269 272 270 267 267 269 268 266 269 273 277 280 280 281 284 282 281 290 291 278 281 303 327 336 317 314 317 308 311 318 318 317 317 318 328 332 325
252 250 246 241 237 234 234 237 239 240 241 243 246 253 260 262 259 256 256 259 263 263 258 258 264 268 271 274 274 273 274 273 271 271 271 275 277 276 277 277 278 280 280 277 278 281 278 273 272 273 271 266 264 263 259 261 268 274 275 275 274 274 272 269 276 274 238 242 276 306 320 342 325 312 306 293 301 308 303 300 306 316 324 326 319
253 249 244 237 232 231 233 237 240 241 242 245 247 250 254 256 254 254 254 255 261 265 262 258 263 269 273 275 272 271 272 273 271 269 269 272 273 273 276 278 278 278 278 277 276 276 275 272 269 270 270 267 264 260 256 259 267 268 266 265 263 261 262 262 259 243 237 255 277 291 294 322 328 316 309 307 306 296 278 286 304 318 324 323 319
249 240 233 230 229 231 236 237 236 238 241 243 245 247 251 253 251 251 253 255 259 262 261 261 266 269 271 273 270 267 269 271 272 273 273 272 272 273 274 274 274 275 276 276 272 271 272 273 273 275 275 271 266 262 258 257 259 259 260 258 252 248 251 254 247 231 233 253 268 272 268 307 324 312 311 325 322 303 275 295 314 327 329 319 321
Height
1579 1579 1580 1581 1582 1584 1585 1586 1587 1587 1588 1589 1590 1590 1590 1591 1591 1591 1591 1592 1592 1592 1591 1592 1592 1592 1592 1592 1592 1591 1592 1592 1592 1592 1592 1590 1589 1588 1587 1587 1587 1587 1587 1587 1587 1587 1587 1587 1587 1586 1586 1586 1585 1585 1585 1584 1584 1584 1584 1584 1584 1583 1582 1582 1581 1580 1580 1579 1578 1577 1577 1576 1575 1574 1573 1573 1572 1571 1570 1570 1568 1567 1566 1565 1565
1579 1580 1581 1582 1583 1584 1586 1586 1587 1588 1589 1590 1590 1590 1591 1592 1592 1592 1592 1592 1592 1592 1591 1592 1592 1592 1592 1592 1592 1592 1592 1592 1593 1593 1592 1591 1589 1588 1588 1588 1588 1588 1587 1587 1587 1587 1587 1587 1587 1587 1587 1587 1586 1586 1586 1585 1585 1585 1585 1584 1583 1583 1582 1581 1581 1580 1580 1579 1578 1577 1576 1575 1574 1573 1572 1572 1571 1570 1569 1569 1567 1566 1565 1564 1563
1580 1581 1582 1582 1583 1585 1586 1587 1588 1589 1589 1590 1590 1591 1591 1592 1591 1592 1592 1592 1592 1592 1591 1592 1592 1592 1592 1592 1593 1593 1593 1593 1592 1592 1593 1592 1590 1589 1588 1588 1588 1588 1588 1588 1588 1588 1588 1588 1588 1588 1587 1587 1587 1587 1587 1586 1586 1586 1585 1584 1583 1583 1582 1581 1581 1580 1579 1578 1577 1576 1576 1575 1574 1573 1572 1571 1570 1569 1568 1567 1566 1565 1564 1563 1562
1580 1581 1582 1583 1584 1586 1587 1587 1588 1589 1589 1590 1590 1590 1591 1591 1591 1591 1591 1592 1592 1592 1592 1592 1592 1592 1592 1593 1593 1593 1593 1593 1593 1593 1593 1592 1591 1590 1589 1589 1589 1589 1589 1589 1589 1589 1589 1589 1589 1588 1588 1588 1588 1588 1588 1587 1588 1587 1585 1585 1584 1583 1583 1581 1580 1579 1578 1577 1576 1575 1575 1574 1573 1572 1571 1570 1569 1568 1568 1566 1565 1564 1563 1562 1560
1580 1582 1583 1584 1585 1586 1587 1588 1588 1589 1589 1590 1590 1590 1591 1591 1591 1591 1591 1592 1592 1592 1592 1592 1592 1592 1592 1592 1593 1593 1593 1593 1593 1593 1593 1592 1592 1592 1591 1590 1590 1590 1590 1590 1590 1590 1590 1590 1590 1589 1589 1589 1589 1588 1588 1588 1589 1588 1585 1585 1586 1584 1583 1582 1580 1579 1578 1577 1575 1575 1574 1573 1572 1571 1570 1570 1569 1568 1567 1566 1565 1563 1562 1561 1559
1580 1582 1584 1585 1586 1587 1588 1588 1588 1589 1589 1589 1590 1591 1591 1592 1592 1592 1592 1592 1592 1592 1592 1592 1592 1592 1592 1593 1593 1593 1593 1593 1594 1594 1594 1594 1593 1593 1593 1592 1592 1591 1592 1592 1592 1592 1592 1591 1591 1590 1590 1590 1589 1589 1589 1589 1589 1589 1587 1586 1586 1585 1583 1582 1581 1579 1577 1576 1575 1574 1573 1573 1572 1571 1570 1569 1568 1567 1566 1565 1564 1563 1561 1560 1559
1580 1582 1584 1585 1586 1587 1588 1588 1588 1589 1590 1589 1590 1591 1591 1592 1592 1592 1592 1592 1592 1592 1592 1592 1592 1592 1592 1592 1593 1593 1593 1593 1593 1593 1594 1594 1594 1595 1596 1595 1595 1594 1594 1594 1594 1594 1594 1593 1592 1592 1591 1590 1590 1589 1589 1589 1589 1589 1588 1586 1585 1585 1584 1582 1580 1578 1577 1575 1574 1573 1572 1572 1571 1570 1569 1568 1567 1566 1565 1564 1563 1562 1561 1559 1558
1581 1582 1584 1585 1586 1586 1587 1587 1587 1589 1590 1590 1590 1591 1591 1591 1592 1592 1592 1592 1592 1592 1592 1592 1592 1592 1592 1592 1593 1593 1593 1593 1593 1594 1594 1594 1594 1595 1596 1596 1597 1596 1596 1596 1595 1595 1595 1594 1594 1593 1592 1591 1590 1590 1589 1589 1588 1587 1587 1587 1586 1584 1583 1581 1580 1578 1576 1575 1574 1572 1571 1571 1570 1569 1568 1567 1566 1565 1564 1564 1562 1561 1560 1558 1557
1581 1582 1584 1585 1585 1585 1587 1587 1588 1589 1589 1590 1590 1591 1591 1591 1592 1592 1592 1592 1592 1592 1592 1592 1592 1592 1592 1592 1592 1593 1593 1593 1593 1593 1594 1594 1594 1594 1595 1595 1596 1596 1596 1595 1595 1595 1595 1594 1594 1593 1592 1591 1590 1590 1589 1588 1588 1586 1584 1584 1585 1585 1582 1580 1579 1577 1575 1574 1573 1571 1570 1570 1569 1568 1567 1566 1565 1564 1563 1563 1562 1560 1559 1557 1556
1582 1582 1583 1585 1585 1585 1587 1587 1588 1589 1589 1590 1591 1591 1591 1591 1592 1592 1592 1592 1592 1592 1592 1592 1592 1592 1592 1592 1592 1593 1593 1593 1593 1593 1594 1594 1594 1595 1595 1596 1595 1595 1595 1595 1594 1594 1593 1592 1592 1592 1591 1591 1590 1589 1588 1587 1586 1586 1584 1581 1581 1582 1581 1579 1578 1577 1575 1573 1572 1571 1570 1569 1568 1568 1567 1566 1564 1563 1562 1561 1560 1559 1558 1556 1555
1582 1583 1584 1586 1586 1586 1587 1587 1588 1589 1589 1590 1591 1591 1591 1592 1592 1592 1592 1592 1592 1593 1592 1592 1592 1592 1592 1592 1592 1593 1593 1593 1592 1594 1595 1594 1594 1595 1595 1596 1595 1594 1594 1594 1593 1593 1591 1591 1591 1591 1590 1589 1589 1589 1588 1587 1585 1584 1584 1583 1580 1578 1576 1574 1574 1574 1573 1573 1572 1571 1569 1568 1568 1567 1566 1565 1564 1562 1561 1560 1559 1558 1557 1555 1554
1583 1584 1584 1586 1587 1587 1587 1588 1588 1589 1589 1591 1591 1591 1591 1591 1592 1592 1592 1593 1592 1593 1593 1592 1592 1592 1592 1592 1592 1592 1593 1593 1593 1593 1594 1594 1594 1594 1594 1595 1595 1595 1594 1593 1593 1593 1592 1591 1590 1590 1590 1588 1588 1588 1586 1585 1585 1583 1582 1582 1582 1580 1578 1576 1575 1574 1574 1574 1572 1571 1569 1568 1567 1567 1566 1564 1563 1562 1560 1559 1558 1557 1556 1554 1552
1583 1584 1585 1586 1587 1587 1587 1588 1589 1589 1589 1590 1590 1590 1590 1591 1592 1592 1592 1592 1592 1592 1592 1592 1592 1592 1592 1592 1592 1593 1593 1593 1593 1593 1593 1593 1593 1593 1594 1594 1594 1594 1594 1593 1594 1594 1593 1592 1591 1590 1590 1589 1587 1587 1585 1584 1583 1583 1581 1580 1580 1579 1579 1579 1577 1576 1575 1573 1572 1570 1569 1568 1567 1566 1565 1564 1562 1561 1560 1558 1557 1555 1554 1553 1551
1583 1584 1585 1586 1587 1587 1588 1588 1589 1589 1589 1590 1590 1590 1591 1591 1592 1592 1592 1592 1592 1592 1592 1592 1592 1592 1592 1592 1592 1592 1592 1592 1592 1592 1592 1592 1592 1593 1593 1593 1593 1593 1593 1593 1593 1593 1593 1593 1591 1590 1589 1588 1587 1585 1584 1583 1583 1582 1581 1579 1578 1578 1578 1577 1576 1575 1574 1573 1572 1570 1569 1568 1567 1566 1565 1563 1562 1561 1559 1557 1556 1554 1553 1551 1550
1584 1585 1585 1586 1587 1587 1588 1588 1588 1589 1589 1590 1590 1591 1591 1591 1592 1592 1592 1592 1592 1592 1592 1592 1592 1591 1591 1591 1591 1591 1592 1592 1592 1591 1592 1592 1592 1592 1592 1592 1591 1592 1592 1592 1591 1591 1591 1591 1590 1589 1588 1587 1585 1584 1583 1582 1582 1581 1580 1579 1578 1577 1577 1576 1575 1574 1573 1572 1571 1570 1569 1568 1567 1566 1564 1563 1562 1560 1558 1556 1554 1553 1551 1550 1549
1584 1585 1586 1586 1587 1587 1588 1588 1588 1589 1589 1590 1590 1591 1591 1592 1592 1592 1592 1591 1591 1592 1592 1592 1591 1591 1591 1591 1591 1590 1590 1591 1590 1591 1591 1591 1591 1591 1591 1591 1590 1590 1591 1591 1590 1590 1589 1589 1589 1588 1587 1585 1584 1583 1583 1582 1582 1581 1580 1579 1578 1577 1576 1575 1574 1573 1573 1572 1571 1570 1569 1568 1567 1565 1564 1562 1561 1559 1557 1555 1553 1552 1550 1549 1547
1584 1585 1586 1586 1586 1587 1588 1588 1588 1589 1590 1590 1591 1591 1592 1592 1592 1592 1592 1591 1591 1591 1592 1592 1591 1591 1591 1591 1591 1590 1590 1590 1589 1590 1590 1590 1590 1590 1590 1591 1590 1590 1590 1590 1590 1589 1588 1588 1588 1587 1586 1585 1584 1583 1583 1582 1581 1580 1579 1578 1577 1576 1575 1574 1573 1573 1572 1571 1570 1569 1568 1567 1566 1565 1563 1562 1560 1559 1557 1554 1552 1550 1549 1548 1546
1584 1585 1586 1586 1586 1587 1587 1588 1589 1589 1590 1590 1591 1591 1592 1592 1592 1592 1592 1591 1591 1592 1591 1591 1591 1591 1591 1592 1592 1591 1591 1591 1590 1591 1591 1591 1590 1590 1590 1590 1590 1589 1590 1590 1589 1588 1588 1588 1588 1587 1585 1584 1583 1583 1583 1582 1581 1580 1579 1578 1577 1576 1575 1574 1573 1572 1571 1570 1569 1569 1568 1567 1566 1564 1563 1561 1560 1558 1556 1553 1551 1549 1547 1546 1545
1584 1585 1585 1585 1586 1587 1587 1588 1589 1589 1590 1590 1591 1592 1592 1592 1592 1592 1592 1591 1591 1592 1591 1590 1591 1591 1591 1592 1592 1591 1591 1592 1591 1592 1592 1591 1590 1591 1591 1591 1590 1588 1589 1590 1589 1588 1588 1588 1587 1585 1583 1584 1583 1582 1582 1581 1580 1579 1578 1577 1576 1575 1574 1573 1572 1571 1571 1570 1569 1568 1567 1566 1565 1564 1562 1561 1559 1557 1555 1552 1550 1548 1546 1545 1544
1584 1584 1584 1585 1585 1586 1587 1587 1588 1589 1590 1590 1591 1592 1592 1592 1591 1591 1591 1591 1591 1591 1591 1591 1591 1590 1591 1591 1592 1592 1592 1591 1591 1592 1592 1591 1590 1591 1592 1592 1590 1588 1588 1590 1589 1588 1587 1585 1585 1584 1582 1583 1582 1581 1580 1580 1579 1578 1577 1576 1575 1574 1573 1572 1572 1571 1570 1570 1569 1568 1567 1566 1565 1563 1561 1560 1558 1556 1554 1551 1549 1547 1545 1544 1543
1583 1583 1584 1585 1585 1586 1587 1587 1588 1589 1589 1591 1591 1591 1591 1591 1590 1591 1591 1591 1591 1591 1591 1591 1591 1591 1591 1591 1591 1592 1592 1592 1591 1592 1592 1591 1591 1591 1591 1591 1589 1588 1589 1590 1589 1587 1586 1584 1583 1583 1582 1581 1581 1580 1580 1579 1578 1577 1576 1575 1574 1573 1572 1572 1571 1571 1570 1569 1568 1567 1566 1565 1564 1562 1561 1559 1557 1555 1553 1551 1548 1546 1544 1543 1541
1582 1583 1583 1584 1585 1585 1586 1587 1588 1588 1589 1590 1590 1590 1590 1590 1590 1590 1590 1590 1591 1591 1591 1591 1591 1591 1591 1591 1591 1591 1592 1592 1591 1592 1592 1591 1590 1591 1590 1589 1588 1588 1588 1588 1588 1586 1585 1583 1582 1582 1582 1580 1580 1580 1579 1578 1577 1576 1575 1574 1573 1573 1572 1571 1571 1570 1570 1569 1568 1567 1566 1565 1564 1562 1560 1558 1557 1555 1553 1550 1548 1545 1543 1542 1541
1582 1582 1582 1583 1584 1585 1586 1587 1587 1588 1588 1589 1589 1590 1590 1590 1590 1590 1590 1590 1590 1590 1591 1591 1591 1591 1591 1591 1591 1591 1591 1591 1590 1591 1590 1590 1589 1590 1589 1588 1587 1587 1587 1587 1586 1584 1584 1583 1581 1581 1580 1579 1579 1579 1578 1577 1575 1575 1574 1574 1573 1572 1571 1571 1570 1570 1569 1568 1567 1566 1565 1564 1563 1561 1559 1557 1556 1554 1552 1550 1548 1545 1543 1542 1540
1582 1582 1582 1583 1583 1584 1585 1586 1586 1587 1587 1588 1589 1589 1590 1591 1591 1590 1589 1590 1590 1590 1590 1590 1591 1591 1591 1591 1590 1590 1590 1590 1589 1589 1589 1588 1589 1589 1588 1587 1586 1587 1586 1585 1583 1583 1583 1582 1580 1580 1579 1578 1578 1578 1577 1576 1575 1574 1574 1573 1572 1571 1571 1570 1570 1569 1569 1568 1567 1566 1565 1563 1562 1560 1558 1557 1555 1553 1551 1549 1547 1545 1543 1541 1540
1581 1582 1582 1583 1583 1583 1584 1585 1585 1586 1586 1587 1587 1587 1588 1589 1589 1589 1589 1589 1589 1589 1589 1589 1590 1590 1590 1590 1590 1590 1590 1589 1589 1588 1588 1588 1588 1587 1587 1586 1586 1586 1585 1583 1583 1582 1581 1580 1579 1579 1579 1579 1578 1577 1577 1575 1574 1574 1574 1572 1572 1571 1570 1570 1569 1569 1568 1567 1566 1565 1564 1562 1561 1559 1558 1556 1554 1553 1551 1549 1547 1545 1543 1542 1540
1580 1581 1582 1582 1583 1583 1583 1584 1584 1585 1585 1586 1586 1586 1587 1587 1588 1588 1589 1589 1588 1588 1588 1589 1589 1589 1589 1589 1589 1589 1589 1588 1588 1587 1587 1587 1586 1586 1586 1585 1585 1584 1583 1582 1581 1581 1580 1580 1578 1577 1578 1578 1577 1576 1576 1575 1574 1574 1574 1572 1571 1571 1570 1569 1569 1568 1567 1567 1565 1564 1563 1561 1560 1559 1557 1555 1553 1552 1550 1548 1546 1545 1543 1542 1540
1579 1580 1580 1581 1582 1583 1582 1583 1583 1584 1584 1585 1585 1586 1586 1586 1587 1587 1587 1588 1588 1587 1588 1588 1588 1588 1588 1588 1588 1588 1588 1587 1587 1587 1586 1586 1585 1585 1585 1584 1583 1582 1582 1581 1580 1580 1579 1579 1578 1577 1577 1577 1576 1576 1575 1575 1574 1573 1574 1572 1571 1570 1570 1569 1568 1568 1567 1566 1565 1564 1562 1561 1559 1558 1556 1554 1553 1551 1549 1548 1546 1544 1543 1541 1540
1578 1579 1579 1579 1580 1581 1582 1582 1582 1582 1583 1584 1584 1585 1585 1585 1586 1586 1586 1587 1587 1587 1587 1587 1587 1587 1587 1587 1587 1587 1586 1586 1586 1586 1585 1585 1584 1584 1584 1583 1582 1581 1581 1580 1579 1579 1579 1579 1578 1577 1577 1576 1576 1575 1574 1574 1574 1573 1573 1573 1571 1570 1569 1569 1568 1567 1567 1565 1564 1563 1562 1560 1559 1557 1556 1554 1552 1550 1549 1547 1545 1544 1542 1541 1540
1577 1578 1578 1578 1579 1579 1580 1581 1582 1582 1582 1583 1583 1584 1584 1584 1585 1585 1585 1586 1586 1586 1586 1586 1586 1586 1586 1586 1586 1586 1585 1585 1585 1585 1584 1584 1583 1583 1582 1582 1582 1581 1580 1579 1578 1578 1579 1578 1577 1576 1576 1575 1575 1575 1574 1572 1573 1573 1573 1573 1571 1569 1568 1568 1567 1567 1566 1565 1564 1563 1561 1560 1558 1556 1555 1553 1552 1550 1548 1546 1545 1543 1542 1541 1540
1575 1576 1577 1577 1577 1577 1579 1580 1580 1581 1581 1582 1582 1582 1583 1583 1584 1584 1584 1584 1585 1585 1585 1585 1585 1585 1585 1585 1585 1585 1584 1584 1584 1584 1583 1583 1582 1582 1581 1581 1581 1580 1579 1579 1578 1578 1578 1578 1577 1576 1575 1574 1574 1574 1573 1572 1572 1573 1572 1572 1572 1570 1568 1568 1566 1566 1565 1564 1563 1562 1560 1559 1557 1556 1554 1553 1551 1549 1547 1546 1544 1543 1542 1540 1539
1573 1574 1575 1576 1576 1576 1577 1578 1579 1579 1579 1580 1581 1581 1581 1582 1582 1583 1583 1583 1583 1583 1583 1583 1584 1584 1583 1584 1583 1583 1583 1583 1582 1582 1582 1582 1581 1581 1580 1580 1580 1579 1579 1578 1577 1577 1577 1577 1576 1576 1575 1574 1573 1573 1573 1573 1572 1572 1572 1571 1570 1569 1567 1566 1565 1564 1564 1563 1562 1561 1559 1558 1556 1555 1554 1552 1550 1549 1547 1545 1544 1542 1541 1540 1539
1572 1572 1573 1574 1575 1575 1576 1576 1577 1578 1578 1579 1580 1580 1580 1580 1581 1582 1582 1582 1581 1581 1582 1582 1582 1583 1582 1582 1582 1582 1581 1581 1581 1581 1581 1580 1580 1580 1579 1579 1579 1578 1578 1577 1576 1575 1576 1576 1575 1575 1574 1573 1572 1572 1573 1573 1572 1572 1570 1570 1569 1568 1567 1565 1564 1563 1562 1561 1561 1560 1558 1557 1555 1554 1553 1551 1550 1548 1546 1545 1544 1542 1541 1540 1539
1570 1571 1571 1572 1573 1574 1575 1575 1576 1577 1577 1578 1578 1579 1579 1579 1579 1580 1580 1580 1579 1580 1580 1580 1580 1581 1581 1580 1580 1580 1580 1580 1580 1580 1579 1579 1579 1578 1578 1578 1577 1577 1577 1576 1575 1574 1574 1574 1574 1573 1574 1573 1572 1572 1572 1572 1572 1571 1570 1570 1569 1568 1567 1566 1563 1562 1561 1560 1560 1559 1557 1556 1555 1553 1552 1550 1549 1547 1546 1545 1543 1542 1541 1539 1538
1568 1569 1570 1570 1571 1572 1573 1574 1575 1575 1576 1576 1576 1577 1577 1577 1577 1578 1579 1578 1578 1578 1579 1578 1578 1579 1578 1578 1578 1578 1578 1578 1578 1578 1578 1578 1578 1577 1577 1577 1576 1576 1575 1574 1573 1573 1573 1573 1573 1573 1573 1573 1572 1572 1572 1572 1572 1571 1570 1569 1569 1568 1567 1566 1564 1561 1560 1560 1559 1558 1556 1555 1554 1552 1551 1550 1548 1547 1546 1544 1543 1542 1541 1539 1538
1566 1567 1568 1569 1570 1570 1571 1572 1572 1573 1574 1574 1574 1575 1575 1576 1576 1576 1577 1577 1577 1577 1577 1577 1577 1577 1576 1576 1576 1577 1577 1577 1577 1577 1576 1576 1576 1576 1575 1575 1575 1574 1574 1573 1572 1572 1572 1572 1572 1573 1573 1572 1572 1572 1572 1572 1572 1571 1570 1569 1569 1568 1567 1566 1564 1561 1560 1559 1558 1557 1555 1554 1553 1552 1550 1549 1548 1547 1546 1544 1543 1542 1541 1539 1538
1564 1565 1566 1567 1568 1568 1568 1569 1570 1570 1571 1572 1572 1573 1573 1574 1574 1574 1575 1575 1575 1575 1575 1575 1575 1575 1575 1574 1575 1575 1575 1575 1575 1575 1575 1575 1574 1574 1574 1573 1573 1573 1572 1572 1572 1571 1571 1571 1572 1572 1573 1572 1572 1572 1572 1571 1572 1572 1570 1569 1568 1568 1567 1565 1564 1562 1560 1559 1557 1556 1554 1553 1551 1551 1550 1549 1548 1547 1546 1544 1543 1542 1541 1540 1538
1562 1563 1564 1565 1566 1566 1566 1567 1568 1568 1569 1569 1570 1571 1572 1572 1572 1572 1573 1573 1573 1573 1573 1573 1573 1573 1573 1572 1573 1573 1573 1573 1573 1573 1573 1573 1572 1572 1572 1572 1571 1571 1571 1571 1571 1570 1570 1570 1571 1571 1572 1571 1571 1571 1570 1570 1571 1571 1570 1569 1568 1567 1566 1564 1563 1562 1560 1558 1556 1555 1553 1552 1551 1550 1549 1548 1548 1547 1546 1544 1543 1542 1541 1540 1539
1560 1561 1562 1562 1563 1563 1564 1564 1565 1566 1566 1567 1568 1568 1569 1570 1570 1571 1571 1571 1571 1571 1571 1571 1571 1571 1571 1571 1571 1571 1571 1571 1571 1572 1571 1571 1571 1571 1571 1570 1569 1569 1569 1569 1569 1568 1568 1568 1569 1569 1569 1570 1569 1569 1569 1569 1569 1569 1568 1568 1568 1567 1565 1563 1562 1561 1560 1558 1556 1554 1552 1551 1550 1549 1548 1548 1547 1546 1545 1544 1543 1542 1541 1540 1539
1558 1559 1560 1560 1561 1561 1561 1562 1563 1563 1564 1564 1565 1566 1567 1567 1568 1569 1569 1569 1569 1569 1569 1569 1569 1569 1569 1569 1569 1569 1570 1570 1570 1570 1570 1570 1570 1569 1569 1569 1568 1567 1567 1567 1566 1566 1566 1566 1566 1566 1567 1568 1568 1568 1569 1568 1568 1567 1566 1566 1567 1566 1564 1562 1560 1560 1559 1558 1556 1554 1552 1551 1549 1548 1547 1547 1547 1546 1545 1544 1543 1542 1541 1540 1539
1555 1556 1557 1559 1559 1558 1558 1559 1560 1561 1561 1562 1562 1563 1564 1565 1566 1566 1566 1567 1567 1567 1567 1567 1568 1568 1567 1568 1568 1568 1568 1569 1568 1568 1569 1569 1568 1568 1567 1567 1567 1566 1566 1566 1565 1565 1565 1565 1565 1565 1566 1566 1566 1566 1567 1566 1566 1566 1566 1566 1566 1564 1562 1560 1559 1558 1557 1557 1556 1554 1552 1550 1549 1548 1546 1546 1546 1546 1545 1544 1543 1542 1541 1540 1539
1551 1552 1553 1555 1556 1556 1557 1557 1558 1559 1559 1559 1560 1561 1561 1562 1563 1564 1564 1565 1565 1566 1566 1566 1566 1566 1566 1566 1567 1566 1566 1567 1567 1567 1567 1568 1567 1567 1566 1566 1565 1565 1565 1565 1564 1564 1564 1564 1564 1564 1564 1564 1564 1564 1565 1565 1564 1565 1565 1566 1566 1563 1560 1559 1558 1556 1555 1555 1555 1553 1551 1549 1548 1547 1546 1545 1545 1545 1545 1544 1543 1542 1541 1540 1539
1549 1549 1550 1551 1553 1554 1555 1556 1556 1556 1557 1557 1558 1559 1559 1560 1561 1562 1562 1563 1563 1563 1564 1564 1564 1564 1565 1565 1566 1565 1565 1566 1567 1566 1567 1567 1567 1567 1566 1566 1565 1564 1564 1564 1563 1562 1562 1562 1562 1562 1562 1563 1563 1562 1562 1562 1563 1563 1562 1563 1564 1563 1560 1558 1557 1555 1554 1554 1554 1552 1551 1550 1548 1547 1547 1546 1545 1545 1545 1544 1543 1542 1541 1540 1539
1547 1548 1548 1548 1549 1551 1553 1554 1554 1555 1555 1555 1556 1557 1558 1559 1560 1561 1561 1561 1560 1560 1561 1561 1562 1563 1563 1563 1564 1563 1564 1564 1564 1564 1565 1565 1566 1566 1566 1565 1564 1564 1563 1563 1562 1561 1560 1560 1560 1560 1560 1560 1560 1560 1560 1560 1560 1561 1560 1560 1561 1561 1559 1557 1556 1554 1553 1553 1552 1551 1551 1550 1548 1547 1547 1546 1545 1545 1545 1544 1543 1542 1541 1540 1539
1545 1545 1545 1546 1547 1548 1549 1550 1551 1552 1552 1552 1552 1554 1556 1557 1559 1560 1560 1560 1560 1559 1559 1559 1560 1561 1560 1561 1561 1562 1562 1562 1562 1563 1563 1563 1563 1564 1564 1564 1563 1563 1562 1561 1560 1559 1558 1558 1557 1557 1557 1557 1557 1557 1557 1558 1558 1558 1558 1558 1558 1558 1557 1555 1554 1553 1552 1552 1551 1551 1550 1548 1547 1547 1546 1545 1545 1545 1544 1543 1543 1542 1540 1539 1539
1541 1542 1543 1543 1544 1545 1547 1547 1548 1548 1549 1549 1550 1553 1554 1554 1556 1557 1557 1558 1558 1557 1557 1558 1558 1559 1558 1558 1559 1559 1560 1561 1561 1562 1562 1561 1560 1561 1562 1562 1561 1561 1560 1559 1558 1557 1556 1555 1555 1554 1555 1555 1555 1555 1555 1555 1555 1555 1555 1555 1555 1555 1554 1553 1553 1552 1551 1551 1550 1550 1549 1548 1547 1546 1545 1544 1544 1544 1543 1543 1542 1541 1540 1539 1538
1538 1539 1540 1540 1542 1543 1545 1546 1547 1546 1546 1548 1550 1551 1551 1552 1554 1555 1555 1555 1555 1555 1556 1557 1557 1557 1556 1556 1556 1557 1558 1559 1559 1560 1559 1558 1558 1559 1559 1559 1559 1559 1558 1557 1556 1555 1554 1554 1552 1551 1552 1553 1553 1553 1553 1553 1553 1553 1552 1552 1553 1554 1553 1552 1551 1551 1550 1549 1549 1548 1548 1548 1547 1546 1545 1544 1543 1543 1542 1542 1541 1541 1540 1539 1538
1535 1535 1536 1537 1538 1541 1542 1543 1545 1545 1545 1546 1548 1549 1550 1552 1553 1553 1553 1552 1552 1553 1554 1554 1555 1556 1555 1554 1555 1556 1556 1556 1558 1558 1558 1557 1557 1557 1557 1557 1557 1557 1555 1554 1553 1553 1552 1551 1551 1550 1550 1551 1550 1550 1551 1551 1551 1551 1550 1550 1551 1552 1551 1550 1550 1549 1549 1548 1547 1547 1547 1547 1547 1546 1544 1543 1542 1542 1542 1541 1540 1540 1539 1539 1538
1531 1532 1533 1534 1535 1537 1539 1541 1543 1544 1543 1543 1545 1546 1548 1550 1551 1551 1551 1550 1551 1551 1552 1552 1552 1553 1553 1552 1552 1552 1553 1554 1555 1556 1556 1555 1554 1554 1554 1555 1555 1555 1553 1551 1550 1550 1550 1549 1549 1548 1547 1548 1548 1548 1548 1549 1549 1549 1548 1548 1549 1549 1549 1548 1548 1549 1548 1547 1546 1546 1546 1546 1547 1546 1545 1543 1541 1540 1540 1539 1539 1539 1539 1538 1537
1528 1529 1530 1531 1532 1534 1535 1537 1540 1541 1540 1540 1541 1543 1545 1547 1548 1548 1549 1548 1548 1549 1549 1549 1549 1549 1550 1549 1549 1549 1550 1551 1552 1553 1553 1552 1551 1551 1551 1551 1551 1552 1551 1549 1547 1547 1547 1546 1545 1545 1544 1544 1544 1545 1546 1546 1546 1546 1546 1546 1547 1547 1546 1546 1547 1547 1547 1545 1545 1545 1545 1545 1545 1545 1545 1545 1543 1541 1539 1538 1538 1539 1538 1536 1536
1525 1526 1527 1528 1530 1531 1532 1534 1537 1538 1538 1538 1539 1539 1541 1543 1545 1546 1546 1546 1546 1546 1547 1547 1546 1546 1546 1546 1546 1546 1546 1547 1548 1549 1548 1547 1547 1546 1546 1546 1546 1546 1547 1547 1544 1543 1542 1542 1542 1542 1542 1541 1541 1541 1542 1543 1543 1543 1543 1544 1544 1544 1544 1544 1545 1545 1545 1544 1543 1543 1544 1545 1545 1544 1543 1543 1543 1543 1541 1538 1537 1537 1536 1534 1534
1521 1522 1523 1526 1528 1529 1530 1532 1534 1535 1536 1537 1537 1537 1537 1539 1541 1542 1543 1543 1543 1543 1544 1544 1543 1542 1542 1542 1542 1542 1543 1543 1544 1544 1544 1543 1542 1542 1542 1542 1541 1541 1543 1544 1540 1538 1538 1539 1539 1539 1539 1538 1538 1537 1538 1539 1540 1540 1540 1541 1541 1542 1542 1542 1542 1542 1542 1541 1541 1542 1543 1544 1544 1543 1542 1542 1542 1542 1542 1540 1538 1537 1535 1533 1532